| time (UTC) | temp C | wind direction | speed KPH | gust KPH | rain 1hr cm | rain 24hr cm | rain mn cm | humidity % | barometer mb |
| 20260831003105 | 21 | 293 | 3.2 | 4.8 | 0.00 | 1.52 | 1.52 | 91 | 1013.6 |
| 20260831001602 | 21 | 274 | 1.6 | 4.8 | 0.00 | 1.52 | 1.52 | 91 | 1013.5 |
| 20260831000105 | 21 | 278 | 1.6 | 4.8 | 0.00 | 1.52 | 1.52 | 91 | 1013.3 |
| 20260830234615 | 21 | 0 | 0.0 | 3.2 | 0.00 | 1.52 | 1.52 | 91 | 1013.2 |
| 20260830233105 | 22 | 278 | 0.0 | 1.6 | 0.00 | 1.52 | 1.52 | 91 | 1013.1 |
| 20260830231611 | 22 | 0 | 0.0 | 4.8 | 0.00 | 1.52 | 1.52 | 90 | 1013.0 |
| 20260830230105 | 22 | 231 | 1.6 | 4.8 | 0.00 | 1.52 | 1.52 | 91 | 1013.1 |
| 20260830224609 | 22 | 278 | 1.6 | 4.8 | 0.03 | 1.52 | 1.52 | 90 | 1013.2 |
| 20260830223103 | 22 | 280 | 3.2 | 6.4 | 0.03 | 1.52 | 1.52 | 89 | 1013.1 |
| 20260830221605 | 22 | 284 | 1.6 | 8.0 | 0.03 | 1.52 | 1.52 | 89 | 1013.2 |
| 20260830220115 | 22 | 253 | 3.2 | 9.7 | 0.05 | 1.52 | 1.52 | 90 | 1013.1 |
| 20260830214558 | 22 | 277 | 3.2 | 6.4 | 0.05 | 1.47 | 1.47 | 91 | 1013.2 |
| 20260830213126 | 21 | 273 | 1.6 | 6.4 | 0.13 | 1.47 | 1.47 | 92 | 1013.2 |
| 20260830211602 | 21 | 274 | 4.8 | 9.7 | 0.13 | 1.47 | 1.47 | 92 | 1013.1 |
| 20260830210106 | 21 | 246 | 3.2 | 8.0 | 0.13 | 1.47 | 1.47 | 92 | 1013.0 |
| 20260830204602 | 21 | 245 | 0.0 | 3.2 | 0.10 | 1.47 | 1.45 | 92 | 1013.3 |
| 20260830203110 | 21 | 0 | 0.0 | 4.8 | 0.03 | 1.42 | 1.37 | 92 | 1013.4 |
| 20260830201605 | 21 | 274 | 4.8 | 9.7 | 0.08 | 1.42 | 1.37 | 91 | 1013.4 |
| 20260830200104 | 21 | 285 | 3.2 | 9.7 | 0.05 | 1.40 | 1.32 | 90 | 1013.5 |
| 20260830194613 | 21 | 278 | 4.8 | 16.1 | 0.23 | 1.40 | 1.32 | 89 | 1013.7 |
| 20260830193102 | 22 | 252 | 6.4 | 14.5 | 0.23 | 1.40 | 1.32 | 87 | 1013.9 |
| 20260830191601 | 22 | 264 | 4.8 | 14.5 | 0.18 | 1.32 | 1.30 | 85 | 1014.0 |
| 20260830190101 | 23 | 257 | 4.8 | 12.9 | 0.18 | 1.32 | 1.30 | 83 | 1013.9 |
| 20260830184614 | 25 | 271 | 11.3 | 27.4 | 0.00 | 1.17 | 1.12 | 73 | 1013.6 |
| 20260830183103 | 26 | 255 | 11.3 | 17.7 | 0.00 | 1.17 | 1.12 | 70 | 1013.3 |
| 20260830181606 | 26 | 249 | 9.7 | 20.9 | 0.00 | 1.17 | 1.12 | 69 | 1013.3 |
| 20260830180106 | 27 | 284 | 14.5 | 24.1 | 0.00 | 1.17 | 1.12 | 64 | 1013.0 |
| 20260830174603 | 27 | 293 | 9.7 | 20.9 | 0.00 | 1.17 | 1.12 | 63 | 1012.8 |
| 20260830173100 | 28 | 278 | 6.4 | 14.5 | 0.00 | 1.17 | 1.12 | 61 | 1012.4 |
| 20260830171605 | 28 | 260 | 8.0 | 19.3 | 0.00 | 1.17 | 1.12 | 59 | 1012.5 |
| 20260830164604 | 28 | 240 | 9.7 | 19.3 | 0.00 | 1.17 | 1.12 | 60 | 1012.5 |
| 20260830163103 | 28 | 264 | 8.0 | 12.9 | 0.00 | 1.17 | 1.12 | 60 | 1012.6 |
| 20260830161627 | 27 | 257 | 6.4 | 12.9 | 0.00 | 1.17 | 1.12 | 62 | 1012.5 |
| 20260830160103 | 27 | 262 | 6.4 | 11.3 | 0.00 | 1.17 | 1.12 | 64 | 1012.7 |
| 20260830154606 | 27 | 273 | 1.6 | 8.0 | 0.00 | 1.17 | 1.12 | 66 | 1012.8 |
| 20260830153106 | 26 | 260 | 6.4 | 14.5 | 0.00 | 1.17 | 1.12 | 66 | 1012.9 |
| 20260830151612 | 26 | 252 | 3.2 | 9.7 | 0.00 | 1.17 | 1.12 | 69 | 1012.7 |
| 20260830144627 | 24 | 249 | 4.8 | 16.1 | 0.00 | 1.17 | 1.12 | 73 | 1012.6 |
| 20260830143110 | 24 | 0 | 4.8 | 9.7 | 0.00 | 1.17 | 1.12 | 73 | 1012.4 |
| 20260830141559 | 23 | 262 | 1.6 | 6.4 | 0.00 | 1.17 | 1.12 | 77 | 1012.5 |
| 20260830134601 | 22 | 240 | 1.6 | 6.4 | 0.00 | 1.17 | 1.12 | 82 | 1012.7 |
| 20260830133104 | 22 | 288 | 1.6 | 6.4 | 0.00 | 1.17 | 1.12 | 83 | 1012.9 |
| 20260830131601 | 21 | 271 | 1.6 | 4.8 | 0.00 | 1.17 | 1.12 | 85 | 1013.2 |
| 20260830130113 | 21 | 0 | 0.0 | 3.2 | 0.00 | 1.17 | 1.12 | 88 | 1013.3 |
| 20260830124556 | 20 | 0 | 0.0 | 3.2 | 0.00 | 1.17 | 1.12 | 89 | 1013.4 |
| 20260830123101 | 20 | 283 | 0.0 | 4.8 | 0.00 | 1.17 | 1.12 | 88 | 1013.7 |
| 20260830121607 | 20 | 278 | 1.6 | 6.4 | 0.00 | 1.17 | 1.12 | 89 | 1013.6 |
| 20260830114616 | 20 | 281 | 0.0 | 4.8 | 0.00 | 1.17 | 1.12 | 90 | 1013.4 |
| 20260830113104 | 20 | 0 | 1.6 | 3.2 | 0.03 | 1.17 | 1.12 | 91 | 1013.1 |
| 20260830111603 | 20 | 285 | 1.6 | 4.8 | 0.03 | 1.17 | 1.12 | 90 | 1012.9 |
| 20260830104600 | 20 | 284 | 3.2 | 8.0 | 0.03 | 1.17 | 1.12 | 87 | 1012.7 |
| 20260830103105 | 20 | 262 | 3.2 | 11.3 | 0.00 | 1.14 | 1.09 | 87 | 1012.7 |
| 20260830101607 | 20 | 315 | 0.0 | 3.2 | 0.00 | 1.14 | 1.09 | 90 | 1012.8 |
| 20260830100121 | 20 | 264 | 0.0 | 4.8 | 0.05 | 1.14 | 1.09 | 88 | 1012.7 |
| 20260830094612 | 20 | 34 | 1.6 | 4.8 | 1.07 | 1.14 | 1.09 | 88 | 1012.9 |
| 20260830093100 | 21 | 103 | 0.0 | 9.7 | 1.09 | 1.14 | 1.09 | 86 | 1013.1 |
| 20260830091601 | 20 | 47 | 1.6 | 9.7 | 1.09 | 1.14 | 1.09 | 89 | 1013.7 |
| 20260830090113 | 20 | 278 | 4.8 | 16.1 | 1.04 | 1.09 | 1.04 | 86 | 1013.9 |
| 20260830084602 | 22 | 275 | 6.4 | 11.3 | 0.03 | 0.08 | 0.03 | 75 | 1014.3 |
| 20260830083106 | 22 | 257 | 1.6 | 6.4 | 0.00 | 0.05 | 0.00 | 78 | 1013.1 |
| 20260830081637 | 22 | 264 | 0.0 | 4.8 | 0.00 | 0.05 | 0.00 | 79 | 1012.8 |
| 20260830080104 | 22 | 256 | 3.2 | 11.3 | 0.00 | 0.05 | 0.00 | 78 | 1013.0 |
| 20260830074609 | 21 | 276 | 0.0 | 6.4 | 0.00 | 0.05 | 0.00 | 79 | 1013.0 |
| 20260830073101 | 21 | 264 | 1.6 | 4.8 | 0.00 | 0.05 | 0.00 | 79 | 1013.2 |
| 20260830071606 | 21 | 271 | 1.6 | 6.4 | 0.00 | 0.05 | 0.00 | 80 | 1013.8 |
| 20260830070100 | 21 | 293 | 1.6 | 4.8 | 0.00 | 0.05 | 0.00 | 80 | 1014.0 |
| 20260830064601 | 21 | 255 | 0.0 | 4.8 | 0.00 | 0.05 | 0.00 | 80 | 1014.3 |
| 20260830063114 | 21 | 310 | 0.0 | 4.8 | 0.00 | 0.05 | 0.00 | 79 | 1014.5 |
| 20260830061559 | 21 | 283 | 1.6 | 4.8 | 0.00 | 0.05 | 0.00 | 80 | 1014.6 |
| 20260830060059 | 21 | 287 | 0.0 | 3.2 | 0.00 | 0.05 | 0.00 | 81 | 1014.6 |
| 20260830054600 | 21 | 0 | 0.0 | 3.2 | 0.00 | 0.05 | 0.00 | 81 | 1014.7 |
| 20260830053107 | 21 | 0 | 0.0 | 3.2 | 0.00 | 0.05 | 0.00 | 81 | 1014.7 |
| 20260830051608 | 21 | 291 | 1.6 | 6.4 | 0.00 | 0.05 | 0.00 | 82 | 1015.0 |
| 20260830050109 | 20 | 0 | 0.0 | 1.6 | 0.00 | 0.05 | 0.00 | 84 | 1015.0 |
| 20260830044610 | 20 | 0 | 0.0 | 1.6 | 0.00 | 0.05 | 0.05 | 84 | 1015.1 |
| 20260830043113 | 21 | 0 | 0.0 | 1.6 | 0.00 | 0.05 | 0.05 | 83 | 1014.9 |
| 20260830041624 | 21 | 0 | 0.0 | 1.6 | 0.00 | 0.05 | 0.05 | 83 | 1015.0 |
| 20260830040116 | 21 | 0 | 0.0 | 4.8 | 0.00 | 0.05 | 0.05 | 83 | 1015.0 |
| 20260830034606 | 21 | 46 | 0.0 | 1.6 | 0.00 | 0.05 | 0.05 | 83 | 1015.0 |
| 20260830033115 | 21 | 0 | 0.0 | 3.2 | 0.00 | 0.05 | 0.05 | 83 | 1015.0 |
| 20260830031559 | 21 | 167 | 0.0 | 3.2 | 0.00 | 0.05 | 0.05 | 83 | 1014.8 |
| 20260830024558 | 21 | 270 | 0.0 | 6.4 | 0.00 | 0.05 | 0.05 | 82 | 1014.7 |
| 20260830023101 | 21 | 60 | 1.6 | 11.3 | 0.00 | 0.05 | 0.05 | 83 | 1014.6 |
| 20260830021606 | 21 | 31 | 1.6 | 6.4 | 0.00 | 0.05 | 0.05 | 82 | 1014.6 |
| 20260830020113 | 21 | 81 | 3.2 | 11.3 | 0.00 | 0.05 | 0.05 | 83 | 1014.5 |
| 20260830014602 | 21 | 44 | 3.2 | 8.0 | 0.00 | 0.05 | 0.05 | 83 | 1014.4 |
| 20260830013101 | 21 | 90 | 3.2 | 9.7 | 0.00 | 0.05 | 0.05 | 83 | 1014.5 |
| 20260830011603 | 21 | 37 | 3.2 | 8.0 | 0.00 | 0.05 | 0.05 | 84 | 1014.7 |
| 20260830004601 | 21 | 44 | 1.6 | 8.0 | 0.00 | 0.05 | 0.05 | 84 | 1014.5 |